NST,Max TemperatureF,Mean TemperatureF,Min TemperatureF,Max Dew PointF,MeanDew PointF,Min DewpointF,Max Humidity, Mean Humidity, Min Humidity, Max Sea Level PressureIn, Mean Sea Level PressureIn, Min Sea Level PressureIn, Max VisibilityMiles, Mean VisibilityMiles, Min VisibilityMiles, Max Wind SpeedMPH, Mean Wind SpeedMPH, Max Gust SpeedMPH,PrecipitationIn, CloudCover, Events, WindDirDegrees
2014-2-1,32,24,17,30,18,10,93,70,38,30.22,29.99,29.84,15,15,15,33,24,41,0.00,3,Snow,279
2014-2-2,30,22,15,30,23,10,100,91,67,30.25,29.96,29.62,15,6,0,26,11,40,0.24,6,Fog-Snow,215
2014-2-3,28,21,14,28,21,10,100,92,78,30.17,29.88,29.61,15,10,0,18,12,28,0.01,8,Fog-Snow,334
2014-2-4,16,12,8,12,8,5,93,81,64,30.17,30.13,30.08,15,14,4,25,7,17,0.01,4,Snow,308
2014-2-5,16,13,10,10,5,-1,86,68,31,30.12,30.05,29.86,15,15,15,26,14,34,0.08,5,Snow,269
2014-2-6,18,10,3,18,9,-4,93,82,48,30.02,29.63,29.35,15,7,0,24,12,37,0.43,6,Snow,359
2014-2-7,21,12,3,18,10,-2,93,81,71,30.08,30.00,29.92,15,14,1,20,13,24,0.00,6,Snow,252
2014-2-8,24,16,9,19,14,7,93,82,67,30.01,29.93,29.87,15,13,2,22,15,32,0.02,4,Snow,260
2014-2-9,17,12,5,14,6,0,86,69,49,29.93,29.89,29.84,15,15,15,26,18,31,0.00,3,Snow,286
2014-2-10,12,6,1,7,1,-4,85,76,61,29.96,29.90,29.83,15,15,8,18,12,23,0.00,6,Snow,272
2014-2-11,12,6,1,5,2,-1,79,71,55,29.98,29.88,29.82,15,15,6,25,16,32,0.00,5,Snow,285
2014-2-12,17,10,4,14,4,0,86,74,50,30.19,30.04,29.96,15,14,7,24,18,30,0.00,4,Snow,296
2014-2-13,28,20,13,18,14,9,93,77,43,30.54,30.45,30.23,15,15,15,22,17,30,0.00,4,Snow,268
2014-2-14,45,32,18,45,32,19,100,94,86,30.45,29.72,29.13,15,9,0,46,26,61,0.47,8,Rain-Snow,178
2014-2-15,36,30,24,36,24,18,91,78,63,30.14,29.54,29.09,15,15,15,56,33,70,0.00,8,Rain,270
2014-2-16,40,32,24,37,26,19,100,90,74,30.14,29.46,29.00,15,8,0,53,23,71,0.39,8,Fog-Rain-Snow,151
2014-2-17,24,22,21,21,16,11,86,75,48,29.58,29.37,29.12,15,11,0,47,37,68,0.04,7,Snow,257
2014-2-18,23,20,17,23,14,7,93,76,45,30.22,29.91,29.60,15,11,1,29,17,40,0.08,5,Snow,307
2014-2-19,33,24,16,32,23,7,100,87,56,30.33,30.08,29.82,15,9,0,29,15,37,0.31,6,Fog-Snow,210
2014-2-20,36,30,25,36,28,25,100,96,91,30.01,29.51,29.01,15,6,0,41,18,53,0.08,8,Fog-Snow,204
2014-2-21,29,26,24,27,23,19,93,82,64,30.25,29.78,29.15,15,13,0,51,36,64,0.00,7,Snow,306
2014-2-22,33,28,23,32,25,21,100,93,82,30.27,29.93,29.53,15,8,0,33,14,40,0.16,8,Fog-Rain-Snow,175
2014-2-23,36,31,26,32,27,23,93,84,64,29.87,29.67,29.56,15,15,15,37,25,47,0.00,2,Snow,265
2014-2-24,33,28,23,34,27,18,100,93,53,29.88,29.56,29.11,15,6,0,17,12,24,0.28,6,Fog-Rain-Snow,163
2014-2-25,32,24,17,34,24,12,100,88,71,29.56,29.20,29.02,15,10,0,36,19,45,0.04,7,Fog-Snow,265
2014-2-26,21,18,14,16,13,10,93,81,64,29.94,29.72,29.57,15,9,1,23,15,30,0.02,6,Snow,262
2014-2-27,22,18,15,19,15,12,93,88,72,29.97,29.86,29.75,15,10,0,22,10,31,0.16,7,Snow,64
2014-2-28,32,23,14,28,19,5,100,87,59,29.89,29.70,29.42,15,8,0,48,16,61,0.08,6,Fog-Snow,132